Regional Weather Roundup
Issued by NWS Wakefield, VA

Home | Current Version | Previous Version | Text Only | Print | Product List | Glossary Off
Versions: 1 2 3 4 5 6 7 8 9 10 11 12 13 14 15 16 17 18 19 20 21 22 23 24 25 26 27 28 29 30 31 32 33 34 35 36 37 38 39 40 41 42 43 44 45 46 47 48 49 50

867
ASUS41 KAKQ 271815
RWRAKQ

REGIONAL WEATHER ROUNDUP
NATIONAL WEATHER SERVICE WAKEFIELD VA
200 PM EDT WED JUL 27 2016

Note: "fair" indicates few or no clouds below 12,000 feet with no
significant weather and/or obstructions to visibility. * = Denotes
station may not report precipitation (e.g., rain,snow,etc.),
thunder or fog.

VAZ042-051-052>054-056-271900-
NORTHERN VIRGINIA

CITY           SKY/WX    TMP DP  RH WIND       PRES   REMARKS
WASH NATIONAL  FAIR      95  63  34 N10       29.94F HX  96
DULLES         PTSUNNY   92  62  36 VRB7      29.96F
FORT BELVOIR   FAIR      94  62  34 VRB3      29.93F HX  95
QUANTICO       FAIR      92  69  47 SE6       29.94F HX  97
FREDERICKSBRG*   N/A     92  69  45 CALM      29.93F HX  97
STAFFORD*      FAIR      94  59  31 N5        29.98F
WARRENTON      FAIR      93  58  30 CALM      29.95F
CULPEPER*      FAIR      91  71  51 CALM      29.96F HX  96
MANASSAS*      SUNNY     91  63  38 CALM      29.95F
LEESBURG*      FAIR      90  68  48 SW5       29.97F
WINCHESTER     FAIR      88  68  51 NW6       29.98F
FRONT ROYAL*   FAIR      88  68  51 CALM      29.96F
LURAY*         FAIR      90  72  55 CALM      29.98F HX  96
$$

VAZ048-049-060>072-079>083-271900-
CENTRAL AND SOUTH CENTRAL VIRGINIA

CITY           SKY/WX    TMP DP  RH WIND       PRES   REMARKS
RICHMOND       FAIR      90  75  61 VRB5      29.94F HX 100
CHESTERFIELD*  FAIR      91  68  46 CALM      29.96F HX  95
PETERSBURG*    FAIR      93  75  56 SW3       29.95F HX 104
HANOVER        FAIR      90  73  57 N3        29.96F HX  98
TAPPAHANNOCK*  FAIR      92  70  47 CALM      29.94F HX  98
QUINTON*       FAIR      90  76  63 W5        29.94F HX 101
CHARLOTTSVILLE PTSUNNY   94  70  45 SE7       29.96F HX 100
GORDONSVILLE*  FAIR      89  70  52 CALM      29.96F
ORANGE*          N/A     90  68  48 CALM      29.98F
LOUISA*        FAIR      93  75  55 SW3       29.96F HX 104
BUMPASS*       MOCLDY    87  76  69 CALM      29.96F HX  97
FARMVILLE*     NOT AVBL
CREWE*         CLOUDY    91  75  61 E3        29.96F HX 101
FORT PICKETT*  MOCLDY    91  76  61 CALM      29.97S HX 103
CHASE CITY*    FAIR      91  71  53 W5        29.98F HX  97
CLARKSVILLE*   FAIR      91  75  59 NW3       29.97F HX 102
SOUTH HILL*    FAIR      92  77  63 CALM      30.02F HX 105
LAWRENCEVILLE* FAIR      90  76  62 CALM      29.96F HX 101
EMPORIA*       FAIR      90  75  62 CALM      29.96F HX 100
$$

VAZ088>098-271900-
SOUTHEAST VIRGINIA

CITY           SKY/WX    TMP DP  RH WIND       PRES   REMARKS
NORFOLK        FAIR      94  72  48 VRB5      29.93F HX 102
VIRGINIA BEACH FAIR      93  75  55 E6        29.92F HX 104
NORFOLK NAVAL  FAIR      92  69  47 NW7       29.95F HX  97
WEST POINT*    FAIR      90  73  56 CALM      29.94F HX  98
SALUDA*        MOCLDY    88  79  73 CALM      29.93F HX 103
NEWPORT NEWS   FAIR      92  76  59 SW10      29.93F HX 104
LANGLEY AFB    MOSUNNY   90  78  67 NE7       29.93F HX 104
FORT EUSTIS    FAIR      93  77  59 N6        29.92F HX 106
WILLIAMSBURG*  FAIR      93  77  59 S3        29.94F HX 107
HR EXEC AP*    FAIR      91  77  62 N5        29.95F HX 105
FRANKLIN*      FAIR      90  76  62 NW3       29.95S HX 101
US460-WAKEFLD  FAIR      91  74  57 CALM      29.94F HX 100
$$

VAZ020-022-025-037-045-271900-
WEST CENTRAL AND SOUTHWEST VIRGINIA

CITY           SKY/WX    TMP DP  RH WIND       PRES   REMARKS
STAUNTON*      TSTM      74  72  95 SW6       30.05R
WAYNESBORO*    FAIR      90  67  46 NW3       30.01F
HOT SPRINGS VA PTSUNNY   79  70  73 W7        30.15F
LYNCHBURG      FAIR      90  71  53 VRB3      30.00F HX  96
DANVILLE       FAIR      92  74  55 SW7       29.98F HX 101
SOUTH BOSTON*  NOT AVBL
MARTINSVILLE   FAIR      93  72  49 S3        30.02F HX 101
ROANOKE        PTSUNNY   89  72  56 CALM      30.01F THUNDER HX  96
BLACKSBURG     FAIR      89  73  59 CALM      30.09F HX  96
DUBLIN*        FAIR      92  68  46 W6        30.07F HX  96
MARION*        FAIR      88  71  57 SW3       30.13S
HILLSVILLE*    FAIR      85  69  56 CALM      30.10F
RICHLANDS*     TSTM      71  71  99 NW9       30.14R
WISE*          PTSUNNY   82  63  51 E6        30.13F THUNDER
ABINGDON*      PTSUNNY   89  70  54 CALM      30.08F
$$

MDZ021>025-VAZ099-100-271900-
SOUTHERN MARYLAND AND THE DELMARVA PENINSULA

CITY           SKY/WX    TMP DP  RH WIND       PRES   REMARKS
PATUXENT RIVER MOSUNNY   94  68  42 NW6       29.93F HX  98
BAY BRIDGE APT MOSUNNY   88  75  66 NW6       29.94F HX  97
LEONARDTOWN    SUNNY     90  63  40 CALM      29.95F
DOVER          MOSUNNY   87  81  84 NE7       29.91F HX 104
GEORGETOWN     SUNNY     92  70  48 VRB6      29.93S HX  97
EASTON         MOSUNNY   91  75  59 NW7       29.97F HX 102
CAMBRIDGE      SUNNY     90  63  40 NW7       29.93S
SALISBURY      PTSUNNY   89  76  65 W9        29.92S HX 100
OCEAN CITY     CLOUDY    75  72  90 S6        29.94S
WALLOPS ISLAND PTSUNNY   82  74  76 NE16      29.95R
ACCOMACK*      CLOUDY    88  75  66 CALM      29.94R HX  97
$$

NCZ012>017-030>032-271900-
NORTH CENTRAL AND EASTERN NORTH CAROLINA

CITY           SKY/WX    TMP DP  RH WIND       PRES   REMARKS
ROANOKE RAPIDS FAIR      90  77  66 SW3       29.95F HX 102
RALEIGH        MOSUNNY   95  74  50 CALM      29.97F HX 105
ELIZABETH CITY SUNNY     93  77  59 W8        29.93F HX 107
AHOSKIE*       SUNNY     88  77  70 CALM      29.95F HX 101
EDENTON*       MOSUNNY   91  75  59 SW6       29.95F HX 102
CURRITUCK*     SUNNY     91  75  58 W5        29.94F HX 101
KILL DEVIL HLS SUNNY     94  74  52 W5        29.94F HX 103
MANTEO           N/A     89  78  70 N5        29.95F HX 102
CAPE HATTERAS  SUNNY     88  78  72 VRB6      29.96F HX 101
TARBORO*       FAIR      94  78  61 CALM      29.96F HX 110
GOLDSBORO      SUNNY     95  76  55 W9        29.95F HX 108
WASHINGTON     MOSUNNY   91  78  65 CALM      29.95F HX 106
GREENVILLE     MOSUNNY   95  79  59 W3        29.97F HX 112
NEW BERN       SUNNY     94  76  55 NW5       29.97F HX 106
WILMINGTON     SUNNY     96  73  47 W12       29.97F HX 105
$$

VAZ048-271900-
ELSEWHERE

CITY           SKY/WX    TMP DP  RH WIND       PRES   REMARKS
HARRISBURG PA  PTSUNNY   90  67  46 S6        29.95F
BALTIMORE      PTSUNNY   92  65  40 CALM      29.93F
ANNAPOLIS      CLOUDY    87  72  60 NW7       29.93F
ANDREWS AFB    FAIR      91  66  43 VRB3      29.94F
PHILADELPHIA   MOSUNNY   92  66  42 E8        29.92F
GREENSBORO     MOSUNNY   96  69  41 VRB5      29.99F HX 102
ROCKY MOUNT    MOSUNNY   93  78  61 VRB5      29.96F HX 108
$$

VAZ100-271900-
MARINE

STATION/POSITION TIME  TEMP    WIND        PRES    WAVE   SWELL
                       AIR SEA DIR/SP/G            HT/PER HT/PER
                 (UTC) (F)     (DEG/KT/KT) (MB)    (FT/S) (FT/S)
BRANDYWINE LGT   1700   80     160/ 10/ 12   N/A
CAPE MAY NJ      1700   85 74  160/  6/  8 1012.9F
LEWES DE         1700   86 77  130/  9/ 11 1013.1F
OCEAN-CITY-INLET 1700   81 72  200/  5/  8 1014.5F
WACHAPREAGUE VA  1700   87 88  110/  5/  7 1013.6F
THOMAS POINT MD  1800   85 85   40/  4/  4 1015.0F
GOOSES REEF MD   1800   86 89   20/  4/  4 1014.7F   0
COVE POINT MD    1700   85      40/  3/  4 1014.5F
SOLOMONS ISLAND  1700   90 85  230/  4/  5   N/A
BISHOPS HEAD MD  1700   85     270/  7/  9 1014.3F
PINEY POINT MD   1700          340/  8/  8   N/A
POTOMAC MD       1800   89 89  330/  6/  6 1012.4F   0
CAMBRIDGE MD     1700   87 87  320/  8/ 10 1012.9F
LEWISETTA VA     1700   87 87   50/  7/  9 1013.5F
RAPPAHANNOCK LGT 1700          280/  5/  6 1014.6F
STINGRAY PT      1800   87 88   70/  4/  4 1014.1F   0
YORK RVR RNG VA  1700   85     180/  1/  2 1013.7F
YORKTOWN VA      1700   90 84   10/  2/  2 1013.7F
JAMESTOWN VA     1800   88 90  290/  2/  4   N/A     0
DOMINION TERM VA 1700   86     320/  5/  6 1014.2F
KIPTOPEKE VA     1700      82  260/  5/  6   N/A
CHES BAY BRIDGE  1700   83 82  320/  5/  6 1014.0F
CAPE HENRY VA    1700   82     350/  7/  7   N/A
WILLOUBY STN VA  1700   84     230/  8/  8   N/A
CAPE HENRY BUOY  1712      77                N/A     1/ 5
1ST LANDING BUOY 1800   84 83   10/  4/  6 1013.1F   1/ 4
CAPE CHARLES BUO 1756      78                N/A     1/ 6
64NM E OF VA BCH 1750   82 82  210/  6/  6 1013.6F   3/ 6   2/ 6
DUCK PIER NC     1700   85 67   70/  4/  4 1013.9F
44100 DUCK FRF   1705      81                N/A     2/ 4
44056 DUCK FRF   1711      78                N/A     1/ 8
OREGON INLET NC  1700   88 84  200/  2/  4 1014.5S
HATTERAS NC      1700   87 83  260/  7/ 10 1014.6F
DIAMOND SHLS NC  1750   84 85  250/  8/ 10 1014.6F   3/ 6   3/ 6
CAPE LOOKOUT NC  1800   87     230/ 11/ 14 1014.7F
$$




USA.gov is the U.S. government's official web portal to all federal, state and local government web resources and services.